This is the latest recevied weather packets stored in our database for station/object KI5NXU. If no packets are shown the sender has not sent any weather packets the latest 1 day(s).
| Time | Temp. | Humidity | Pressure | Rain* | Wind** | Luminosity | Snow |
|---|---|---|---|---|---|---|---|
| 1778044620 | 13.33° C | 82% | 1009.8 hPa | 0 mm | 0 m/s | 0 W/m² | - |
| 1778044316 | 13.33° C | 82% | 1009.6 hPa | 0 mm | 0 m/s | 0 W/m² | - |
| 1778044015 | 13.33° C | 81% | 1009.5 hPa | 0 mm | 1.79 m/s, 49° | 0 W/m² | - |
| 1778043711 | 13.89° C | 81% | 1009.9 hPa | 0 mm | 1.34 m/s, 69° | 0 W/m² | - |
| 1778043408 | 13.89° C | 82% | 1009.6 hPa | 0 mm | 0.45 m/s, 75° | 0 W/m² | - |
| 1778043104 | 13.89° C | 81% | 1010.2 hPa | 0 mm | 1.79 m/s, 45° | 0 W/m² | - |
| 1778042802 | 13.89° C | 82% | 1010.3 hPa | 0 mm | 1.34 m/s, 32° | 0 W/m² | - |
| 1778042499 | 13.89° C | 82% | 1010.1 hPa | 0 mm | 0.45 m/s, 80° | 0 W/m² | - |
| 1778042196 | 13.89° C | 82% | 1010.2 hPa | 0 mm | 0.45 m/s, 87° | 0 W/m² | - |
| 1778041894 | 13.89° C | 82% | 1010.1 hPa | 0 mm | 0.89 m/s, 57° | 0 W/m² | - |
| 1778041593 | 13.89° C | 82% | 1010.1 hPa | 0 mm | 0.45 m/s, 25° | 0 W/m² | - |
| 1778041291 | 13.89° C | 81% | 1010.1 hPa | 0 mm | 1.34 m/s, 20° | 0 W/m² | - |
| 1778040989 | 13.89° C | 81% | 1010.1 hPa | 0 mm | 1.34 m/s, 75° | 0 W/m² | - |
| 1778040685 | 14.44° C | 80% | 1010 hPa | 0 mm | 1.34 m/s, 89° | 0 W/m² | - |
| 1778040383 | 14.44° C | 80% | 1010 hPa | 0 mm | 1.34 m/s, 51° | 0 W/m² | - |
| 1778040080 | 14.44° C | 81% | 1010.3 hPa | 0 mm | 2.68 m/s, 91° | 0 W/m² | - |
| 1778039777 | 14.44° C | 81% | 1010.1 hPa | 0 mm | 0 m/s | 0 W/m² | - |
| 1778039473 | 14.44° C | 81% | 1010 hPa | 0 mm | 1.79 m/s, 67° | 0 W/m² | - |
| 1778039171 | 14.44° C | 81% | 1009.9 hPa | 0 mm | 1.34 m/s, 54° | 0 W/m² | - |
| 1778038868 | 14.44° C | 81% | 1009.6 hPa | 0 mm | 0 m/s | 0 W/m² | - |
| 1778038565 | 14.44° C | 80% | 1009.8 hPa | 0 mm | 2.24 m/s, 42° | 0 W/m² | - |
| 1778038261 | 15° C | 80% | 1009.8 hPa | 0 mm | 3.13 m/s, 5° | 0 W/m² | - |
| 1778037959 | 15° C | 80% | 1009.9 hPa | 0 mm | 0.89 m/s, 5° | 0 W/m² | - |
| 1778037656 | 15° C | 80% | 1009.9 hPa | 0 mm | 1.34 m/s, 14° | 0 W/m² | - |
| 1778037353 | 15° C | 80% | 1009.6 hPa | 0 mm | 2.24 m/s, 31° | 0 W/m² | - |
* Rain latest hour (hover to see other rain measurements)
** Current wind speed in m/s (hover to see current wind gust speed)